Time,TemperatureF,DewpointF,PressureIn,WindDirection,WindDirectionDegrees,WindSpeedMPH,WindSpeedGustMPH,Humidity,HourlyPrecipIn,Conditions,Clouds,dailyrainin,SoftwareType,DateUTC
2013-04-05 00:02:00,66.5,65.0,29.91,SSW,199,4.0,4.0,96,0.00,,,0.00,weatherlink.com 1.10,2013-04-05 04:02:00,
2013-04-05 00:17:00,67.1,66.0,29.91,South,184,2.0,7.0,96,0.00,,,0.00,weatherlink.com 1.10,2013-04-05 04:17:00,
2013-04-05 00:32:00,67.2,66.0,29.92,SW,231,0.0,3.0,96,0.00,,,0.00,weatherlink.com 1.10,2013-04-05 04:32:00,
2013-04-05 00:47:00,67.3,66.0,29.92,SW,219,0.0,0.0,96,0.00,,,0.00,weatherlink.com 1.10,2013-04-05 04:47:00,
2013-04-05 01:02:00,67.4,66.0,29.93,SSE,163,0.0,1.0,96,0.00,,,0.00,weatherlink.com 1.10,2013-04-05 05:02:00,
2013-04-05 01:17:00,67.4,66.0,29.93,SW,236,0.0,3.0,96,0.01,,,0.01,weatherlink.com 1.10,2013-04-05 05:17:00,
2013-04-05 01:32:00,67.4,66.0,29.93,West,276,0.0,1.0,96,0.01,,,0.01,weatherlink.com 1.10,2013-04-05 05:32:00,
2013-04-05 01:47:00,67.3,66.0,29.92,SSW,194,1.0,5.0,96,0.02,,,0.02,weatherlink.com 1.10,2013-04-05 05:47:00,
2013-04-05 02:02:00,67.3,66.0,29.90,SSE,165,1.0,7.0,96,0.02,,,0.02,weatherlink.com 1.10,2013-04-05 06:02:00,
2013-04-05 02:17:00,67.3,66.0,29.90,SW,214,4.0,8.0,96,0.02,,,0.03,weatherlink.com 1.10,2013-04-05 06:17:00,
2013-04-05 02:32:00,66.9,66.0,29.87,SE,127,2.0,8.0,95,0.03,,,0.04,weatherlink.com 1.10,2013-04-05 06:32:00,
2013-04-05 02:47:00,66.6,65.0,29.84,ESE,114,1.0,5.0,95,0.02,,,0.04,weatherlink.com 1.10,2013-04-05 06:47:00,
2013-04-05 03:02:00,66.4,65.0,29.86,SE,129,1.0,9.0,94,0.02,,,0.04,weatherlink.com 1.10,2013-04-05 07:02:00,
2013-04-05 03:17:00,66.0,64.0,29.81,NW,309,1.0,3.0,93,0.02,,,0.05,weatherlink.com 1.10,2013-04-05 07:17:00,
2013-04-05 03:32:00,65.7,64.0,29.82,WNW,285,1.0,3.0,94,0.01,,,0.05,weatherlink.com 1.10,2013-04-05 07:32:00,
2013-04-05 03:47:00,65.5,64.0,29.80,West,273,1.0,4.0,94,0.01,,,0.05,weatherlink.com 1.10,2013-04-05 07:47:00,
2013-04-05 04:02:00,65.2,64.0,29.80,NW,305,1.0,3.0,94,0.01,,,0.05,weatherlink.com 1.10,2013-04-05 08:02:00,
2013-04-05 04:17:00,65.1,63.0,29.79,WSW,253,0.0,3.0,94,0.00,,,0.05,weatherlink.com 1.10,2013-04-05 08:17:00,
2013-04-05 04:32:00,64.9,63.0,29.79,NW,307,1.0,5.0,94,0.00,,,0.05,weatherlink.com 1.10,2013-04-05 08:32:00,
2013-04-05 04:47:00,64.7,63.0,29.78,WNW,295,1.0,4.0,94,0.00,,,0.05,weatherlink.com 1.10,2013-04-05 08:47:00,
2013-04-05 05:02:00,64.5,63.0,29.80,West,274,0.0,2.0,95,0.00,,,0.05,weatherlink.com 1.10,2013-04-05 09:02:00,
2013-04-05 05:17:00,64.3,63.0,29.80,West,280,0.0,2.0,95,0.00,,,0.05,weatherlink.com 1.10,2013-04-05 09:17:00,
2013-04-05 05:32:00,64.1,63.0,29.82,West,264,0.0,0.0,95,0.00,,,0.05,weatherlink.com 1.10,2013-04-05 09:32:00,
2013-04-05 05:47:00,63.8,62.0,29.82,West,264,0.0,0.0,95,0.00,,,0.05,weatherlink.com 1.10,2013-04-05 09:47:00,
2013-04-05 06:02:00,63.8,63.0,29.83,SSW,205,0.0,0.0,96,0.00,,,0.05,weatherlink.com 1.10,2013-04-05 10:02:00,
2013-04-05 06:17:00,63.7,63.0,29.84,SSW,205,0.0,0.0,96,0.00,,,0.05,weatherlink.com 1.10,2013-04-05 10:17:00,
2013-04-05 06:32:00,63.7,63.0,29.84,SSW,205,0.0,0.0,96,0.00,,,0.05,weatherlink.com 1.10,2013-04-05 10:32:00,
2013-04-05 06:47:00,63.9,63.0,29.83,SSW,205,0.0,0.0,96,0.00,,,0.05,weatherlink.com 1.10,2013-04-05 10:47:00,
2013-04-05 07:02:00,63.8,63.0,29.83,SSW,205,0.0,0.0,96,0.00,,,0.05,weatherlink.com 1.10,2013-04-05 11:02:00,
2013-04-05 07:17:00,63.7,63.0,29.83,SSW,205,0.0,0.0,96,0.00,,,0.05,weatherlink.com 1.10,2013-04-05 11:17:00,
2013-04-05 07:32:00,63.7,63.0,29.83,SSW,205,0.0,0.0,96,0.00,,,0.05,weatherlink.com 1.10,2013-04-05 11:32:00,
2013-04-05 07:48:00,63.8,63.0,29.84,ESE,120,1.0,2.0,97,0.00,,,0.05,weatherlink.com 1.10,2013-04-05 11:48:00,
2013-04-05 08:02:00,64.2,63.0,29.86,SE,134,1.0,3.0,97,0.00,,,0.05,weatherlink.com 1.10,2013-04-05 12:02:00,
2013-04-05 08:17:00,64.3,63.0,29.87,SSE,160,0.0,4.0,96,0.00,,,0.05,weatherlink.com 1.10,2013-04-05 12:17:00,
2013-04-05 08:32:00,64.7,64.0,29.86,SE,142,1.0,3.0,96,0.00,,,0.05,weatherlink.com 1.10,2013-04-05 12:32:00,
2013-04-05 08:48:00,65.4,64.0,29.87,SE,138,0.0,3.0,95,0.00,,,0.05,weatherlink.com 1.10,2013-04-05 12:48:00,
2013-04-05 09:03:00,66.0,64.0,29.88,ESE,117,0.0,7.0,94,0.00,,,0.05,weatherlink.com 1.10,2013-04-05 13:03:00,
2013-04-05 09:18:00,66.9,65.0,29.88,SE,143,1.0,6.0,92,0.00,,,0.05,weatherlink.com 1.10,2013-04-05 13:18:00,
2013-04-05 09:33:00,67.6,65.0,29.89,South,190,7.0,9.0,91,0.00,,,0.05,weatherlink.com 1.10,2013-04-05 13:33:00,
2013-04-05 09:48:00,68.0,65.0,29.89,SW,214,1.0,5.0,90,0.00,,,0.05,weatherlink.com 1.10,2013-04-05 13:48:00,
2013-04-05 10:03:00,67.7,65.0,29.89,SE,127,0.0,5.0,91,0.01,,,0.06,weatherlink.com 1.10,2013-04-05 14:03:00,
2013-04-05 10:33:00,67.7,66.0,29.89,SW,231,0.0,5.0,93,0.01,,,0.06,weatherlink.com 1.10,2013-04-05 14:33:00,
2013-04-05 10:48:00,67.8,66.0,29.89,WSW,243,0.0,4.0,93,0.01,,,0.06,weatherlink.com 1.10,2013-04-05 14:48:00,
2013-04-05 11:03:00,67.9,66.0,29.89,WSW,239,0.0,4.0,93,0.02,,,0.08,weatherlink.com 1.10,2013-04-05 15:03:00,
2013-04-05 11:18:00,67.5,66.0,29.89,SSE,162,2.0,6.0,94,0.11,,,0.17,weatherlink.com 1.10,2013-04-05 15:18:00,
2013-04-05 11:33:00,67.3,66.0,29.88,West,259,3.0,4.0,95,0.12,,,0.18,weatherlink.com 1.10,2013-04-05 15:33:00,
2013-04-05 11:48:00,67.8,67.0,29.88,West,274,0.0,3.0,96,0.12,,,0.18,weatherlink.com 1.10,2013-04-05 15:48:00,
2013-04-05 12:03:00,67.9,67.0,29.87,WNW,297,1.0,7.0,95,0.08,,,0.18,weatherlink.com 1.10,2013-04-05 16:03:00,
2013-04-05 12:18:00,68.5,67.0,29.86,West,261,4.0,5.0,95,0.01,,,0.18,weatherlink.com 1.10,2013-04-05 16:18:00,
2013-04-05 12:33:00,69.5,68.0,29.86,ESE,115,2.0,5.0,95,0.00,,,0.18,weatherlink.com 1.10,2013-04-05 16:33:00,
2013-04-05 12:48:00,70.3,69.0,29.85,West,269,1.0,7.0,94,0.00,,,0.18,weatherlink.com 1.10,2013-04-05 16:48:00,
2013-04-05 13:03:00,71.3,69.0,29.84,WSW,245,1.0,4.0,93,0.00,,,0.18,weatherlink.com 1.10,2013-04-05 17:03:00,
2013-04-05 13:18:00,72.2,70.0,29.84,WNW,302,0.0,6.0,91,0.00,,,0.18,weatherlink.com 1.10,2013-04-05 17:18:00,
2013-04-05 13:33:00,72.0,69.0,29.84,West,279,1.0,5.0,90,0.00,,,0.18,weatherlink.com 1.10,2013-04-05 17:33:00,
2013-04-05 13:48:00,73.0,70.0,29.83,NW,311,3.0,4.0,89,0.00,,,0.18,weatherlink.com 1.10,2013-04-05 17:48:00,
2013-04-05 14:03:00,74.4,70.0,29.81,West,271,2.0,7.0,86,0.00,,,0.18,weatherlink.com 1.10,2013-04-05 18:03:00,
2013-04-05 14:18:00,74.8,70.0,29.80,North,356,1.0,6.0,85,0.00,,,0.18,weatherlink.com 1.10,2013-04-05 18:18:00,
2013-04-05 14:33:00,75.1,70.0,29.80,SW,235,2.0,6.0,83,0.00,,,0.18,weatherlink.com 1.10,2013-04-05 18:33:00,
2013-04-05 14:48:00,75.3,69.0,29.79,SSW,208,2.0,5.0,81,0.00,,,0.18,weatherlink.com 1.10,2013-04-05 18:48:00,
2013-04-05 15:03:00,73.0,70.0,29.80,SSW,203,0.0,6.0,89,0.04,,,0.22,weatherlink.com 1.10,2013-04-05 19:03:00,
2013-04-05 15:18:00,72.7,70.0,29.79,NW,314,3.0,8.0,90,0.04,,,0.22,weatherlink.com 1.10,2013-04-05 19:18:00,
2013-04-05 15:33:00,72.9,69.0,29.79,South,184,2.0,6.0,88,0.04,,,0.22,weatherlink.com 1.10,2013-04-05 19:33:00,
2013-04-05 16:03:00,75.5,71.0,29.78,North,357,1.0,5.0,85,0.00,,,0.22,weatherlink.com 1.10,2013-04-05 20:03:00,
2013-04-05 16:18:00,74.8,70.0,29.77,WSW,246,2.0,6.0,84,0.00,,,0.22,weatherlink.com 1.10,2013-04-05 20:18:00,
2013-04-05 16:33:00,73.8,71.0,29.78,WNW,293,0.0,4.0,90,0.03,,,0.25,weatherlink.com 1.10,2013-04-05 20:33:00,
2013-04-05 17:34:00,73.4,66.0,29.78,NNW,330,5.0,12.0,77,0.00,,,0.25,weatherlink.com 1.10,2013-04-05 21:34:00,
2013-04-05 18:03:00,72.4,65.0,29.79,NW,311,1.0,8.0,77,0.00,,,0.25,weatherlink.com 1.10,2013-04-05 22:03:00,
2013-04-05 18:33:00,72.1,66.0,29.80,NNE,20,5.0,7.0,80,0.00,,,0.25,weatherlink.com 1.10,2013-04-05 22:33:00,
2013-04-05 18:49:00,69.3,64.0,29.80,North,353,3.0,7.0,84,0.00,,,0.25,weatherlink.com 1.10,2013-04-05 22:49:00,
2013-04-05 19:04:00,68.7,64.0,29.81,North,357,2.0,6.0,85,0.00,,,0.25,weatherlink.com 1.10,2013-04-05 23:04:00,
2013-04-05 19:33:00,66.4,63.0,29.82,North,5,5.0,11.0,88,0.00,,,0.25,weatherlink.com 1.10,2013-04-05 23:33:00,
2013-04-05 19:49:00,65.7,62.0,29.82,NW,305,0.0,6.0,89,0.00,,,0.25,weatherlink.com 1.10,2013-04-05 23:49:00,
2013-04-05 20:04:00,65.0,62.0,29.84,NNE,33,4.0,8.0,89,0.00,,,0.25,weatherlink.com 1.10,2013-04-06 00:04:00,
2013-04-05 20:19:00,64.4,62.0,29.84,NW,312,2.0,6.0,90,0.00,,,0.25,weatherlink.com 1.10,2013-04-06 00:19:00,
2013-04-05 20:34:00,64.1,61.0,29.86,NNW,330,2.0,10.0,90,0.00,,,0.25,weatherlink.com 1.10,2013-04-06 00:34:00,
2013-04-05 20:49:00,63.7,61.0,29.87,North,6,5.0,11.0,90,0.00,,,0.25,weatherlink.com 1.10,2013-04-06 00:49:00,
2013-04-05 21:04:00,63.7,61.0,29.88,NNW,333,2.0,9.0,89,0.00,,,0.25,weatherlink.com 1.10,2013-04-06 01:04:00,
2013-04-05 21:19:00,63.7,61.0,29.89,NNW,340,2.0,8.0,89,0.00,,,0.25,weatherlink.com 1.10,2013-04-06 01:19:00,
2013-04-05 22:34:00,62.6,59.0,29.92,NW,322,1.0,12.0,88,0.00,,,0.25,weatherlink.com 1.10,2013-04-06 02:34:00,
2013-04-05 22:49:00,62.1,59.0,29.93,NNW,347,3.0,12.0,88,0.00,,,0.25,weatherlink.com 1.10,2013-04-06 02:49:00,
2013-04-05 23:04:00,62.0,59.0,29.93,NNW,333,6.0,8.0,88,0.00,,,0.25,weatherlink.com 1.10,2013-04-06 03:04:00,